Middlebury State AP, Middlebu, VT

4:07 PM EST on December 14, 2019 (GMT -0500)
Middlebury State AP, Middlebu

Weather History for K6B0 - July, 2019

Change the Weather History Date:

Wednesday, July 31, 2019

  Actual Average (WUND) Record (WUND)
Temperature  
Mean Temperature 73 °F -  
Max Temperature 81 °F - - (-1)
Min Temperature 65 °F - - (-1)
Cooling Degree Days 8    
Growing Degree Days 23 (Base 50)    
Moisture  
Dew Point 66 °F    
Average Humidity 87    
Maximum Humidity 99    
Minimum Humidity 61    
Precipitation  
Precipitation 1.02 in - - ()
Sea Level Pressure  
Sea Level Pressure 30.01 in    
Wind  
Wind Speed 2 mph ()    
Max Wind Speed 8 mph    
Max Gust Speed 26 mph    
Visibility 7.6 miles    
Events Rain , Thunderstorm    
Averages and records for this station are not official NWS values.
T = Trace of Precipitation, MM = Missing Value Source: Averaged Metar Reports

Daily Weather History Graph

Daily Weather History Graph

Search for Another Location

Airport or City:

Astronomy

Jul. 31, 2019 Rise Set
Actual Time 5:39 AM EDT 8:17 PM EDT
Civil Twilight 5:06 AM EDT 8:50 PM EDT
Nautical Twilight 4:24 AM EDT 9:32 PM EDT
Astronomical Twilight 3:36 AM EDT 10:19 PM EDT
Moon 4:47 AM EDT (7/31) 8:16 PM EDT (7/31)
Length of Visible Light 15h 44m
Length of Day
14h 38m
Waning Crescent, 0% of the Moon is Illuminated
Jul 31
Waning Crescent
Jul 31
New
Aug 7
First Quarter
Aug 15
Full
Aug 23
Last Quarter

Hourly Weather History & Observations

Time (EDT) Temp. Heat Index Dew Point Humidity Pressure Visibility Wind Dir Wind Speed Gust Speed Precip Events Conditions
12:15 AM 67.3 °F - 65.3 °F 93% 29.98 in 10.0 mi South 3.5 mph - N/A   Scattered Clouds
12:16 AM 67.1 °F - 65.5 °F 95% 29.98 in 10.0 mi South 3.5 mph - N/A   Clear
12:38 AM 67.5 °F - 66.2 °F 96% 29.97 in 10.0 mi Calm Calm - N/A   Clear
12:56 AM 67.3 °F - 66.2 °F 96% 29.98 in 10.0 mi Calm Calm - N/A   Clear
1:16 AM 66.9 °F - 66.0 °F 97% 29.98 in 7.0 mi Calm Calm - N/A   Clear
1:35 AM 66.6 °F - 65.3 °F 96% 29.97 in 10.0 mi Calm Calm - N/A   Clear
1:55 AM 66.0 °F - 65.3 °F 98% 29.99 in 5.0 mi Calm Calm - N/A   Scattered Clouds
1:59 AM 66.0 °F - 65.3 °F 98% 29.99 in 7.0 mi Calm Calm - N/A   Scattered Clouds
2:17 AM 66.4 °F - 65.3 °F 96% 29.97 in 7.0 mi Calm Calm - N/A Rain Rain
2:35 AM 66.9 °F - 65.5 °F 95% 29.97 in 7.0 mi South 5.8 mph - 0.01 in Rain Rain
2:55 AM 67.1 °F - 65.5 °F 95% 29.97 in 7.0 mi Calm Calm - 0.01 in   Scattered Clouds
2:56 AM 67.1 °F - 65.5 °F 95% 29.97 in 7.0 mi South 3.5 mph - 0.01 in   Scattered Clouds
3:15 AM 67.5 °F - 65.3 °F 93% 29.97 in 10.0 mi South 4.6 mph - N/A Thunderstorm Mostly Cloudy
3:38 AM 67.8 °F - 65.3 °F 92% 30.00 in 2.5 mi West 4.6 mph - 0.16 in Rain Heavy Rain
3:56 AM 67.1 °F - 66.0 °F 96% 29.99 in 5.0 mi East 3.5 mph - 0.18 in Rain Light Rain
4:16 AM 67.1 °F - 66.2 °F 97% 29.99 in 5.0 mi ESE 4.6 mph - N/A   Overcast
4:35 AM 67.3 °F - 65.8 °F 95% 29.99 in 10.0 mi Calm Calm - N/A   Overcast
4:36 AM 67.3 °F - 65.8 °F 95% 29.99 in 10.0 mi Calm Calm - N/A   Overcast
4:55 AM 67.1 °F - 66.2 °F 97% 29.99 in 5.0 mi Calm Calm - N/A   Mostly Cloudy
5:00 AM 66.7 °F - 66.2 °F 98% 29.99 in 5.0 mi Calm Calm - N/A   Mostly Cloudy
5:17 AM 66.2 °F - 65.5 °F 98% 29.99 in 3.0 mi Calm Calm - N/A   Mostly Cloudy
5:35 AM 65.8 °F - 65.3 °F 98% 29.99 in 3.0 mi Calm Calm - N/A   Scattered Clouds
5:55 AM 65.7 °F - 65.3 °F 99% 30.00 in 2.0 mi Calm Calm - N/A   Scattered Clouds
5:56 AM 65.7 °F - 65.1 °F 98% 30.00 in 2.0 mi Calm Calm - N/A   Scattered Clouds
6:15 AM 65.3 °F - 64.8 °F 98% 30.00 in 2.0 mi Calm Calm - N/A   Mostly Cloudy
6:16 AM 65.3 °F - 64.8 °F 98% 30.00 in 2.0 mi Calm Calm - N/A   Mostly Cloudy
6:38 AM 65.3 °F - 64.9 °F 99% 30.01 in 2.5 mi Calm Calm - N/A   Clear
6:57 AM 66.2 °F - 65.7 °F 98% 30.01 in 3.0 mi Calm Calm - N/A   Clear
7:16 AM 67.3 °F - 67.1 °F 99% 30.00 in 3.0 mi Calm Calm - N/A   Clear
7:35 AM 68.2 °F - 67.3 °F 97% 30.02 in 10.0 mi Calm Calm - N/A   Clear
7:36 AM 68.2 °F - 67.1 °F 96% 30.02 in 10.0 mi Calm Calm - N/A   Clear
7:55 AM 68.4 °F - 67.5 °F 97% 30.02 in 4.0 mi Calm Calm - N/A   Scattered Clouds
8:00 AM 68.9 °F - 68.0 °F 97% 30.02 in 4.0 mi Calm Calm - N/A   Scattered Clouds
8:18 AM 68.9 °F - 68.0 °F 97% 30.02 in 5.0 mi Calm Calm - N/A   Scattered Clouds
8:36 AM 71.2 °F - 68.4 °F 91% 30.02 in 10.0 mi SSE 3.5 mph - N/A   Clear
8:55 AM 73.0 °F - 68.2 °F 85% 30.03 in 10.0 mi Calm Calm - N/A   Scattered Clouds
8:56 AM 73.0 °F - 67.8 °F 84% 30.03 in 10.0 mi Calm Calm - N/A   Scattered Clouds
9:15 AM 74.5 °F - 68.4 °F 81% 30.03 in 10.0 mi South 4.6 mph - N/A   Scattered Clouds
9:16 AM 74.7 °F - 68.4 °F 81% 30.03 in 10.0 mi SSW 4.6 mph - N/A   Scattered Clouds
9:38 AM 73.4 °F - 67.5 °F 82% 30.03 in 10.0 mi SSE 3.5 mph - N/A   Scattered Clouds
9:56 AM 74.5 °F - 68.2 °F 81% 30.03 in 10.0 mi SSW 3.5 mph - N/A   Scattered Clouds
10:16 AM 75.2 °F - 67.6 °F 77% 30.04 in 10.0 mi SW 5.8 mph - N/A   Mostly Cloudy
10:35 AM 74.3 °F - 66.7 °F 77% 30.04 in 10.0 mi SW 3.5 mph - N/A   Mostly Cloudy
10:36 AM 74.3 °F - 66.7 °F 77% 30.04 in 10.0 mi Calm Calm - N/A   Mostly Cloudy
10:55 AM 74.8 °F - 67.3 °F 77% 30.04 in 10.0 mi SW 3.5 mph - N/A   Mostly Cloudy
10:59 AM 74.8 °F - 67.3 °F 77% 30.04 in 10.0 mi SW 3.5 mph - N/A   Mostly Cloudy
11:17 AM 75.9 °F - 68.0 °F 76% 30.04 in 10.0 mi South 5.8 mph - N/A   Mostly Cloudy
11:36 AM 77.0 °F - 68.2 °F 74% 30.04 in 10.0 mi South 6.9 mph - N/A   Mostly Cloudy
11:55 AM 77.4 °F - 67.5 °F 71% 30.03 in 10.0 mi SSW 5.8 mph - N/A   Mostly Cloudy
12:15 PM 77.9 °F - 66.4 °F 68% 30.03 in 10.0 mi SE 3.5 mph - N/A   Mostly Cloudy
12:16 PM 78.1 °F - 66.0 °F 66% 30.03 in 10.0 mi Calm Calm - N/A   Mostly Cloudy
12:38 PM 78.4 °F - 66.7 °F 67% 30.02 in 10.0 mi South 6.9 mph - N/A   Scattered Clouds
12:56 PM 79.5 °F - 66.9 °F 65% 30.02 in 10.0 mi SSE 3.5 mph - N/A   Clear
1:15 PM 79.7 °F - 66.9 °F 65% 30.02 in 10.0 mi SSW 4.6 mph - N/A   Mostly Cloudy
1:16 PM 79.7 °F - 66.7 °F 64% 30.01 in 10.0 mi SSW 5.8 mph - N/A   Mostly Cloudy
1:35 PM 80.4 °F 82.4 °F 65.8 °F 61% 30.01 in 10.0 mi SSW 6.9 mph - N/A   Mostly Cloudy
1:36 PM 80.4 °F 82.4 °F 65.8 °F 61% 30.01 in 10.0 mi SSW 6.9 mph - N/A   Mostly Cloudy
1:55 PM 81.1 °F 83.5 °F 66.9 °F 62% 30.00 in 10.0 mi South 5.8 mph - N/A   Mostly Cloudy
1:59 PM 81.1 °F 83.4 °F 66.6 °F 61% 30.00 in 10.0 mi SW 5.8 mph - N/A   Mostly Cloudy
2:36 PM 66.4 °F - 61.5 °F 84% 30.01 in 0.2 mi ENE 8.1 mph 26.5 mph 0.83 in   Overcast